SCP
0 0 0 0 0 0 0 0 0 0 0 0 0 0 0 0 0 0 0 1 1 1 1 1 1 1 1 1 1 1 1 1 0 0 0 0 0 0 0 0 0 0 0 0
0 0 0 0 0 0 0 0 0 0 0 0 0 0 0 0 0 0 1 1 1 1 1 1 1 1 1 1 1 1 1 1 1 0 0 0 0 0 0 0 0 0 0 0
0 0 0 0 0 0 0 0 0 0 0 0 0 0 0 0 1 1 1 1 1 1 1 1 1 1 1 1 1 1 1 1 1 1 1 1 1 1 0 0 0 0 0 0
0 0 0 0 0 0 0 0 0 0 0 0 0 0 0 1 1 1 1 1 1 1 1 1 1 1 1 1 1 1 1 1 1 1 1 1 1 1 1 0 0 0 0 0
0 0 0 0 0 0 0 0 0 0 0 0 0 1 1 1 1 1 1 1 1 1 1 1 1 1 1 1 1 1 1 1 1 1 1 1 1 1 1 1 0 0 0 0
0 0 0 0 0 0 0 0 0 0 0 0 0 0 0 0 0 0 0 1 1 1 1 1 1 1 1 1 1 1 1 1 1 1 1 1 1 1 1 1 1 0 0 0
0 0 0 0 0 0 0 0 0 0 0 0 0 0 0 0 0 0 0 1 1 1 1 1 1 1 1 1 1 1 1 1 1 1 1 1 1 1 1 1 1 0 0 0
0 0 0 0 0 0 0 0 0 0 0 0 0 0 0 1 1 0 0 1 1 1 1 0 0 0 0 0 0 0 1 1 1 1 1 1 1 1 1 1 1 0 0 0
0 0 0 0 0 0 0 0 0 0 0 0 0 1 1 1 1 1 1 1 1 1 1 0 0 0 0 0 0 0 0 0 1 1 1 1 1 1 1 1 1 0 0 0
0 0 0 0 0 0 0 0 0 0 0 0 1 1 1 1 1 1 1 1 1 1 1 0 0 0 0 0 0 0 0 0 1 1 1 1 0 0 0 0 0 0 0 0
0 0 0 0 0 0 0 0 0 0 0 1 1 1 1 1 1 1 1 1 1 1 1 0 0 0 0 0 0 0 0 0 0 0 0 0 0 0 0 0 0 0 0 0
0 0 0 0 0 0 0 0 0 0 1 1 1 1 1 1 1 1 1 1 1 0 0 0 0 0 0 0 0 0 0 0 0 0 0 0 0 0 0 0 0 0 0 0
0 0 0 0 0 0 0 0 0 0 1 1 1 1 0 0 0 1 1 1 0 0 0 0 0 0 0 0 0 0 0 0 0 0 0 0 0 0 0 0 0 0 0 0
0 0 0 0 0 0 0 0 0 0 0 0 0 0 0 0 0 0 0 0 0 0 0 0 0 0 0 0 0 0 0 0 0 0 0 0 0 0 0 0 0 0 0 0
0 0 0 0 0 0 0 0 0 0 0 0 0 0 0 0 0 0 0 0 0 0 0 0 0 0 0 0 0 0 0 0 0 0 0 0 0 0 0 0 0 0 0 0
0 0 0 0 0 0 0 0 0 0 0 0 0 0 0 0 0 0 0 0 0 0 0 0 0 0 0 0 0 0 0 0 0 0 0 0 0 0 0 0 0 0 0 0
0 0 0 0 0 0 0 0 0 0 0 0 0 0 0 0 0 0 0 0 0 0 0 0 0 0 0 0 0 0 0 0 0 0 0 0 0 0 0 0 0 0 0 0
0 0 0 0 0 0 0 0 0 0 0 0 0 0 0 0 0 0 0 0 0 0 0 0 0 0 0 0 0 0 0 0 0 0 0 0 0 0 0 0 0 0 0 0
0 0 0 0 0 0 0 0 0 0 0 0 0 0 0 0 0 0 0 0 0 0 0 0 0 0 0 0 0 0 0 0 0 0 0 0 0 0 0 0 0 0 0 0
0 0 0 0 0 0 0 0 0 0 0 0 0 0 0 0 0 0 0 0 0 0 0 0 0 0 0 0 0 0 0 0 0 0 0 0 0 0 0 0 0 0 0 0
0 0 0 0 0 0 0 0 0 0 0 0 0 0 0 0 0 0 0 0 0 0 0 0 0 0 0 0 0 0 0 0 0 0 0 0 0 0 0 0 0 0 0 0
0 0 0 0 0 0 0 0 0 0 0 0 0 0 0 0 0 0 0 0 0 0 0 0 0 0 0 0 0 0 0 0 0 0 0 0 0 0 0 0 0 0 0 0
0 0 0 0 0 0 0 0 0 0 0 0 0 0 0 0 0 0 0 0 0 0 0 0 0 0 0 0 0 0 0 0 0 0 0 0 0 0 0 0 0 0 0 0
0 0 0 0 0 0 0 0 0 0 0 0 0 0 0 0 0 0 0 0 0 0 0 0 0 0 0 0 0 0 0 0 0 0 0 0 0 0 0 0 0 0 0 0
0 0 0 0 0 0 0 0 0 0 0 0 0 0 0 0 0 0 0 0 0 0 0 0 0 0 0 0 0 0 0 0 0 0 0 0 0 0 0 0 0 0 0 0
0 0 0 0 0 0 0 0 0 0 0 0 0 0 0 0 0 0 0 0 0 0 0 0 0 0 0 0 0 0 0 0 0 0 0 0 0 0 0 0 0 0 0 0
0 0 0 0 0 0 0 0 0 0 0 0 0 0 0 0 0 0 0 0 0 0 0 0 0 0 0 0 0 0 0 0 0 0 0 0 0 0 0 0 0 0 0 0
Wind_Speed
4 4 4 4 5 6 6 8 8 8 8 9 8 7 5 4 3 4 4 5 6 6 5 5 5 5 5 5 5 6 6 5 4 3 2 1 1 1 1 1 0 0 1 1
1 2 3 2 4 6 5 5 5 4 8 7 4 3 3 4 5 6 6 6 6 5 6 6 7 7 6 5 5 5 6 5 4 3 3 2 1 1 1 1 1 1 1 1
3 2 1 4 5 5 4 4 6 7 9 3 4 6 8 7 7 7 6 6 6 6 6 6 6 6 7 6 5 5 5 4 4 4 4 2 2 2 2 1 1 2 1 1
3 2 5 9 4 4 5 4 4 5 5 6 7 6 4 4 6 5 5 5 5 5 5 4 4 5 5 5 5 5 4 4 4 4 3 3 2 2 2 2 2 1 2 2
4 4 5 6 2 4 5 4 4 4 3 2 2 3 1 2 4 5 4 4 4 4 4 5 5 5 6 5 5 5 5 4 4 4 4 3 3 2 2 2 2 2 2 2
5 5 7 8 3 2 4 4 4 4 4 3 5 3 5 3 3 3 3 4 4 4 5 5 5 6 6 6 6 5 5 4 4 4 4 4 3 2 2 3 2 2 3 2
5 4 7 6 2 3 5 8 4 5 5 6 6 6 3 3 3 3 3 4 5 5 5 5 5 6 6 5 4 4 4 4 4 4 4 4 3 3 4 3 3 3 3 3
5 4 8 2 3 6 7 3 3 4 5 5 4 2 3 4 4 4 4 4 5 5 5 4 5 6 6 4 4 4 4 4 4 4 4 4 4 4 4 4 3 3 2 2
7 7 5 2 4 3 2 2 2 3 3 5 4 3 3 3 4 3 4 4 4 5 5 4 4 5 6 3 4 5 5 4 4 4 4 4 4 4 3 3 3 2 2 1
1 4 3 2 2 1 1 2 2 3 4 5 5 5 4 4 3 3 3 4 4 5 5 3 3 4 4 4 5 5 5 5 4 4 4 4 3 3 3 3 3 2 2 1
1 3 3 3 2 1 0 2 3 3 3 5 6 5 4 4 3 3 3 3 4 4 4 4 3 3 4 4 6 6 5 4 4 3 4 3 3 2 2 2 2 3 2 2
5 5 3 4 3 1 1 1 3 4 4 4 4 5 4 3 2 3 3 3 4 4 4 3 4 3 3 4 6 6 5 4 3 3 3 3 3 2 4 2 3 2 2 2
4 2 3 2 2 1 1 1 2 3 4 5 3 4 5 3 2 3 3 4 4 4 4 4 4 3 3 4 5 5 5 4 3 3 3 3 3 3 2 2 3 3 2 2
2 1 1 1 2 0 1 2 3 3 3 4 4 4 4 4 3 2 2 3 3 3 4 4 3 2 2 4 5 4 4 5 4 3 3 3 3 2 2 2 1 0 0 1
2 3 4 2 0 1 1 3 4 3 2 2 2 3 4 4 3 3 3 3 4 3 3 3 3 2 2 4 5 5 4 4 3 3 3 3 3 2 2 3 2 1 1 0
1 0 1 1 1 1 2 3 3 2 2 1 1 2 2 3 2 2 3 4 5 4 4 4 4 3 3 4 4 4 3 5 4 3 3 3 3 3 3 3 2 2 2 2
2 1 1 1 2 2 2 3 3 2 2 2 2 2 3 3 2 3 3 3 4 3 3 4 4 3 4 4 5 3 3 4 5 4 3 4 3 4 3 3 3 3 3 3
3 3 3 3 3 2 1 1 1 2 2 2 2 3 4 3 3 3 3 3 2 1 2 3 3 3 3 4 4 3 3 3 4 4 4 4 4 4 4 4 4 4 3 2
1 1 1 1 1 2 1 1 1 1 1 1 2 3 3 3 3 3 3 4 4 4 3 3 4 4 4 4 4 3 3 4 3 3 3 4 4 3 4 4 4 4 4 3
1 1 0 0 1 1 0 0 0 0 1 2 2 2 2 2 3 3 3 3 4 4 3 3 3 3 4 4 5 3 4 4 4 3 3 4 4 4 4 4 4 4 4 4
0 0 0 0 1 1 1 1 1 1 1 2 3 3 3 3 3 3 3 3 4 3 3 4 3 3 3 3 4 3 4 4 4 4 4 4 4 4 4 4 4 4 4 4
0 1 1 1 1 1 2 1 1 1 2 2 2 3 3 3 3 3 4 4 4 4 3 3 3 4 5 5 3 4 4 4 4 3 4 4 4 4 4 4 4 4 4 4
0 0 0 0 0 1 2 1 1 1 2 3 3 3 4 4 3 3 4 3 3 5 4 3 4 6 6 4 3 4 4 4 4 4 4 4 4 4 4 5 4 4 4 4
1 0 0 1 0 0 2 2 2 1 2 2 3 3 3 2 2 3 3 4 5 5 3 4 6 6 5 3 3 3 3 4 4 4 4 4 4 4 4 4 4 4 4 4
1 1 1 1 1 2 3 2 1 1 1 1 2 2 2 3 3 3 2 3 4 4 2 4 5 6 4 3 3 3 3 3 4 4 4 4 4 4 4 4 4 3 3 3
1 1 2 2 2 2 2 1 1 2 1 2 2 2 2 2 2 2 2 3 4 4 3 2 3 3 3 3 3 3 3 3 3 3 3 3 4 4 3 4 4 4 3 3
1 1 1 1 2 2 2 2 2 2 2 2 3 2 2 2 1 2 2 2 2 3 3 3 3 3 3 3 3 3 3 3 3 3 3 3 3 3 3 4 3 3 3 3
Wind_Direction
213 212 176 187 192 178 177 180 184 222 225 239 230 221 216 201 181 172 180 180 177 172 172 172 167 169 170 171 163 157 153 158 170 167 155 138 138 142 132 111 102 79 63 38
231 211 187 211 220 201 200 188 199 216 247 247 233 201 194 193 188 188 190 189 186 180 175 175 177 178 175 175 166 155 153 159 154 144 135 133 140 136 117 93 58 62 56 46
221 255 94 251 221 203 204 197 175 204 233 209 193 200 200 199 195 195 190 181 183 187 186 184 183 174 175 174 157 152 159 157 148 145 141 137 142 122 109 94 74 64 56 80
152 128 215 241 231 183 179 216 209 221 230 203 206 206 200 190 187 192 188 180 182 182 175 171 160 155 155 149 148 151 154 149 145 145 144 135 123 115 106 91 85 82 76 85
133 174 257 283 226 172 170 242 222 212 225 197 132 77 330 205 184 196 191 182 181 174 159 149 144 142 139 142 143 146 153 155 154 153 150 140 137 137 124 105 90 83 82 73
133 160 219 240 238 190 131 257 236 190 187 157 127 148 237 206 169 177 170 155 152 143 130 134 137 134 136 143 144 157 166 163 153 148 149 148 144 135 118 116 113 99 77 65
152 190 247 247 262 121 166 233 223 189 184 170 183 205 207 155 148 152 154 143 137 135 136 143 137 131 133 141 155 159 146 136 134 139 146 143 131 124 122 117 108 98 85 65
149 177 244 251 138 177 215 233 185 183 180 180 189 156 126 132 134 134 135 131 131 133 131 127 131 135 137 150 151 134 131 127 125 125 132 130 123 117 116 119 113 102 93 72
184 207 240 241 219 237 195 197 205 182 186 161 150 146 132 126 125 126 136 134 134 137 131 123 134 142 145 157 135 126 121 117 113 110 107 117 122 127 124 122 123 122 118 99
223 267 277 280 276 289 202 184 195 168 156 149 148 146 132 126 123 125 132 138 142 138 134 132 137 132 139 142 128 122 122 121 118 119 109 100 107 128 134 138 137 138 131 132
240 270 319 320 300 278 80 94 85 85 118 138 139 139 138 131 128 131 130 125 131 141 144 144 130 121 128 136 132 129 129 129 126 126 129 120 108 101 128 140 163 157 162 169
217 222 201 249 275 289 123 121 128 113 102 105 129 136 128 125 130 133 134 127 124 121 127 133 131 130 133 141 141 140 140 141 140 137 134 137 131 93 58 86 93 115 146 156
220 224 209 246 295 306 176 124 107 113 130 122 112 125 126 126 127 123 133 142 148 145 144 143 140 145 152 147 146 151 152 153 149 149 149 151 151 147 128 59 65 79 109 150
220 163 225 251 251 259 120 110 100 90 101 117 124 124 127 126 123 129 156 160 145 139 143 146 144 153 158 149 147 152 153 156 157 162 162 162 164 168 172 170 165 71 79 169
263 206 201 217 8 68 104 113 108 111 112 100 114 126 137 145 159 169 167 147 137 139 152 151 150 172 163 156 157 161 161 166 167 169 172 168 164 175 187 183 181 185 162 149
286 60 141 144 188 194 138 138 145 167 167 148 131 147 151 156 160 160 162 158 155 173 182 174 185 194 174 165 163 166 171 178 173 173 173 169 174 189 193 187 191 203 210 205
150 211 198 197 224 226 200 187 180 183 187 189 189 163 143 143 149 166 175 175 173 186 189 189 200 192 174 170 169 173 175 180 179 177 184 183 187 198 198 193 200 213 222 211
198 215 214 205 202 209 222 203 176 170 188 199 172 156 155 162 180 191 183 158 146 167 207 205 197 185 181 177 173 174 179 186 190 193 193 189 192 197 199 204 208 215 222 212
221 211 208 197 203 188 190 204 203 203 204 171 160 174 183 186 190 188 171 161 176 209 228 213 196 184 187 193 180 175 184 191 196 198 198 194 197 200 201 206 213 216 215 211
13 28 93 122 81 94 144 173 159 207 219 180 167 172 196 208 195 185 179 198 218 220 211 199 189 188 192 191 182 182 189 196 200 200 200 204 206 209 209 209 213 217 216 213
23 21 68 59 35 30 326 255 191 219 229 187 184 202 216 224 205 184 187 229 247 218 202 200 197 201 198 190 185 188 192 201 205 205 203 207 210 211 211 211 213 215 216 215
72 62 5 352 61 327 291 271 219 206 204 206 210 207 208 221 214 206 216 224 229 208 198 199 200 199 195 189 192 196 200 203 205 205 203 204 207 210 215 217 218 218 216 216
314 124 322 319 279 268 293 292 244 218 211 218 218 215 220 227 210 203 234 227 205 205 206 207 200 195 192 188 193 197 201 204 207 209 209 208 209 211 214 218 220 219 220 219
241 252 272 296 264 250 278 281 266 247 236 241 241 231 221 227 242 233 227 217 206 205 210 204 196 196 192 194 195 197 204 210 213 214 211 212 212 213 214 215 217 219 220 219
230 244 250 248 268 260 257 267 288 280 262 263 269 265 242 222 224 231 215 209 204 205 208 199 194 195 193 190 193 197 204 210 210 208 209 208 210 212 212 209 209 210 208 209
226 244 254 247 246 252 253 244 247 256 256 265 271 267 265 244 222 223 217 209 204 199 201 199 190 189 195 196 198 204 209 212 215 216 215 209 210 208 208 207 204 202 197 196
249 254 277 289 279 256 244 234 232 240 233 234 252 259 253 232 205 208 209 206 200 198 197 196 195 194 192 195 200 208 213 213 214 216 215 212 209 210 208 202 195 185 177 177